| time (UTC) | temp F | wind direction | speed MPH | gust MPH | rain 1hr in | rain 24hr in | rain mn in | humidity % | barometer mb |
| 20260903175844 | 67 | 240 | 0.0 | 0.0 | 0.00 | 0.00 | 0.00 | 38 | 1020.7 |
| 20260903174042 | 68 | 269 | 0.0 | 0.0 | 0.00 | 0.00 | 0.00 | 38 | 1020.7 |
| 20260903173046 | 68 | 276 | 0.0 | 0.0 | 0.00 | 0.00 | 0.00 | 38 | 1020.6 |
| 20260903172145 | 68 | 261 | 0.0 | 0.0 | 0.00 | 0.00 | 0.00 | 38 | 1020.5 |
| 20260903170145 | 69 | 263 | 0.0 | 0.0 | 0.00 | 0.00 | 0.00 | 38 | 1020.2 |
| 20260903165143 | 69 | 260 | 0.0 | 0.0 | 0.00 | 0.00 | 0.00 | 38 | 1020.2 |
| 20260903164144 | 69 | 259 | 0.0 | 0.0 | 0.00 | 0.00 | 0.00 | 38 | 1020.3 |
| 20260903163143 | 69 | 268 | 0.0 | 0.0 | 0.00 | 0.00 | 0.00 | 38 | 1020.3 |
| 20260903161146 | 68 | 247 | 0.0 | 0.0 | 0.00 | 0.00 | 0.00 | 37 | 1020.2 |
| 20260903160145 | 68 | 258 | 0.0 | 0.0 | 0.00 | 0.00 | 0.00 | 38 | 1020.4 |
| 20260903155143 | 68 | 264 | 0.0 | 0.0 | 0.00 | 0.00 | 0.00 | 38 | 1020.5 |
| 20260903154144 | 69 | 293 | 0.0 | 0.0 | 0.00 | 0.00 | 0.00 | 38 | 1020.5 |
| 20260903153145 | 69 | 286 | 0.0 | 0.0 | 0.00 | 0.00 | 0.00 | 37 | 1020.3 |
| 20260903152144 | 70 | 275 | 0.0 | 0.0 | 0.00 | 0.00 | 0.00 | 37 | 1020.1 |
| 20260903151146 | 70 | 268 | 0.0 | 0.0 | 0.00 | 0.00 | 0.00 | 37 | 1020.0 |
| 20260903150158 | 70 | 250 | 0.0 | 0.0 | 0.00 | 0.00 | 0.00 | 37 | 1020.0 |
| 20260903145244 | 70 | 268 | 0.0 | 0.0 | 0.00 | 0.00 | 0.00 | 37 | 1020.2 |
| 20260903143245 | 69 | 274 | 0.0 | 0.0 | 0.00 | 0.00 | 0.00 | 38 | 1020.1 |
| 20260903142244 | 69 | 284 | 0.0 | 0.0 | 0.00 | 0.00 | 0.00 | 38 | 1020.3 |
| 20260903141245 | 69 | 268 | 0.0 | 0.0 | 0.00 | 0.00 | 0.00 | 38 | 1020.1 |
| 20260903140342 | 70 | 281 | 0.0 | 0.0 | 0.00 | 0.00 | 0.00 | 38 | 1020.0 |
| 20260903135345 | 70 | 294 | 0.0 | 0.0 | 0.00 | 0.00 | 0.00 | 37 | 1019.8 |
| 20260903134345 | 70 | 269 | 0.0 | 0.0 | 0.00 | 0.00 | 0.00 | 38 | 1019.8 |
| 20260903133443 | 70 | 271 | 0.0 | 0.0 | 0.00 | 0.00 | 0.00 | 37 | 1019.9 |
| 20260903132444 | 70 | 281 | 0.0 | 0.0 | 0.00 | 0.00 | 0.00 | 37 | 1019.8 |
| 20260903125644 | 69 | 279 | 0.0 | 0.0 | 0.00 | 0.00 | 0.00 | 38 | 1019.8 |
| 20260903124644 | 70 | 277 | 0.0 | 0.0 | 0.00 | 0.00 | 0.00 | 37 | 1019.6 |
| 20260903122746 | 70 | 247 | 0.0 | 0.0 | 0.00 | 0.00 | 0.00 | 38 | 1019.6 |
| 20260903121843 | 71 | 241 | 0.0 | 0.0 | 0.00 | 0.00 | 0.00 | 37 | 1019.4 |
| 20260903120843 | 70 | 251 | 0.0 | 0.0 | 0.00 | 0.00 | 0.00 | 37 | 1019.4 |
| 20260903115844 | 71 | 240 | 0.0 | 0.0 | 0.00 | 0.00 | 0.00 | 38 | 1019.4 |
| 20260903114900 | 70 | 247 | 0.0 | 0.0 | 0.00 | 0.00 | 0.00 | 38 | 1019.3 |
| 20260903113942 | 70 | 229 | 0.0 | 0.0 | 0.00 | 0.00 | 0.00 | 38 | 1019.4 |
| 20260903112944 | 70 | 247 | 0.0 | 0.0 | 0.00 | 0.00 | 0.00 | 38 | 1019.2 |
| 20260903111945 | 70 | 248 | 0.0 | 0.0 | 0.00 | 0.00 | 0.00 | 38 | 1019.4 |
| 20260903111044 | 70 | 251 | 0.0 | 0.0 | 0.00 | 0.00 | 0.00 | 38 | 1019.4 |
| 20260903110142 | 69 | 245 | 0.0 | 0.0 | 0.00 | 0.00 | 0.00 | 39 | 1019.2 |
| 20260903105143 | 69 | 246 | 0.0 | 0.0 | 0.00 | 0.00 | 0.00 | 39 | 1019.4 |
| 20260903104145 | 68 | 234 | 0.0 | 0.0 | 0.00 | 0.00 | 0.00 | 39 | 1019.4 |
| 20260903103145 | 68 | 252 | 0.0 | 0.0 | 0.00 | 0.00 | 0.00 | 39 | 1019.6 |
| 20260903102144 | 67 | 218 | 0.0 | 0.0 | 0.00 | 0.00 | 0.00 | 39 | 1019.6 |
| 20260903101158 | 67 | 233 | 0.0 | 0.0 | 0.00 | 0.00 | 0.00 | 39 | 1019.7 |
| 20260903100245 | 66 | 233 | 0.0 | 0.0 | 0.00 | 0.00 | 0.00 | 38 | 1019.6 |
| 20260903095246 | 65 | 217 | 0.0 | 0.0 | 0.00 | 0.00 | 0.00 | 40 | 1019.5 |
| 20260903094243 | 65 | 243 | 0.0 | 0.0 | 0.00 | 0.00 | 0.00 | 40 | 1019.7 |
| 20260903093246 | 65 | 263 | 0.0 | 0.0 | 0.00 | 0.00 | 0.00 | 40 | 1019.7 |
| 20260903092342 | 65 | 255 | 0.0 | 0.0 | 0.00 | 0.00 | 0.00 | 40 | 1019.6 |
| 20260903091344 | 65 | 244 | 0.0 | 0.0 | 0.00 | 0.00 | 0.00 | 40 | 1019.6 |
| 20260903090344 | 66 | 219 | 0.0 | 0.0 | 0.00 | 0.00 | 0.00 | 40 | 1019.3 |
| 20260903085343 | 66 | 231 | 0.0 | 0.0 | 0.00 | 0.00 | 0.00 | 40 | 1019.0 |
| 20260903084345 | 66 | 235 | 0.0 | 0.0 | 0.00 | 0.00 | 0.00 | 40 | 1019.2 |
| 20260903083343 | 65 | 212 | 0.0 | 0.0 | 0.00 | 0.00 | 0.00 | 40 | 1019.3 |
| 20260903082358 | 65 | 226 | 0.0 | 0.0 | 0.00 | 0.00 | 0.00 | 40 | 1019.3 |
| 20260903081443 | 65 | 233 | 0.0 | 0.0 | 0.00 | 0.00 | 0.00 | 40 | 1019.2 |
| 20260903080443 | 64 | 205 | 0.0 | 0.0 | 0.00 | 0.00 | 0.00 | 40 | 1019.3 |
| 20260903074458 | 64 | 210 | 0.0 | 0.0 | 0.00 | 0.00 | 0.00 | 40 | 1019.6 |
| 20260903073443 | 63 | 215 | 0.0 | 0.0 | 0.00 | 0.00 | 0.00 | 40 | 1019.4 |
| 20260903072444 | 63 | 207 | 0.0 | 0.0 | 0.00 | 0.00 | 0.00 | 41 | 1019.3 |
| 20260903071459 | 63 | 214 | 0.0 | 0.0 | 0.00 | 0.00 | 0.00 | 41 | 1019.5 |
| 20260903070545 | 62 | 208 | 0.0 | 0.0 | 0.00 | 0.00 | 0.00 | 41 | 1019.6 |
| 20260903064544 | 62 | 207 | 0.0 | 0.0 | 0.00 | 0.00 | 0.00 | 41 | 1019.4 |
| 20260903063543 | 62 | 209 | 0.0 | 0.0 | 0.00 | 0.00 | 0.00 | 41 | 1019.4 |
| 20260903062546 | 62 | 223 | 0.0 | 0.0 | 0.00 | 0.00 | 0.00 | 41 | 1019.9 |
| 20260903061644 | 63 | 219 | 0.0 | 0.0 | 0.00 | 0.00 | 0.00 | 41 | 1019.8 |
| 20260903060645 | 63 | 209 | 0.0 | 0.0 | 0.00 | 0.00 | 0.00 | 41 | 1019.9 |
| 20260903055642 | 63 | 223 | 0.0 | 0.0 | 0.00 | 0.00 | 0.00 | 41 | 1019.9 |
| 20260903054644 | 63 | 246 | 0.0 | 0.0 | 0.00 | 0.00 | 0.00 | 41 | 1020.0 |
| 20260903053645 | 62 | 219 | 0.0 | 0.0 | 0.00 | 0.00 | 0.00 | 41 | 1020.0 |
| 20260903052643 | 62 | 242 | 0.0 | 0.0 | 0.00 | 0.00 | 0.00 | 40 | 1019.9 |
| 20260903045759 | 62 | 215 | 0.0 | 0.0 | 0.00 | 0.00 | 0.00 | 40 | 1019.7 |
| 20260903044744 | 62 | 206 | 0.0 | 0.0 | 0.00 | 0.00 | 0.00 | 40 | 1019.6 |
| 20260903043744 | 62 | 208 | 0.0 | 0.0 | 0.00 | 0.00 | 0.00 | 40 | 1019.9 |
| 20260903042745 | 62 | 215 | 0.0 | 0.0 | 0.00 | 0.00 | 0.00 | 40 | 1019.8 |
| 20260903041746 | 62 | 214 | 0.0 | 0.0 | 0.00 | 0.00 | 0.00 | 40 | 1020.1 |
| 20260903040844 | 62 | 205 | 0.0 | 0.0 | 0.00 | 0.00 | 0.00 | 40 | 1019.9 |
| 20260903035844 | 62 | 210 | 0.0 | 0.0 | 0.00 | 0.00 | 0.00 | 40 | 1019.9 |
| 20260903034845 | 62 | 204 | 0.0 | 0.0 | 0.00 | 0.00 | 0.00 | 40 | 1020.1 |
| 20260903033844 | 62 | 199 | 0.0 | 0.0 | 0.00 | 0.00 | 0.00 | 40 | 1020.1 |
| 20260903032942 | 62 | 201 | 0.0 | 0.0 | 0.00 | 0.00 | 0.00 | 40 | 1020.3 |
| 20260903031944 | 62 | 201 | 0.0 | 0.0 | 0.00 | 0.00 | 0.00 | 39 | 1020.4 |
| 20260903025944 | 61 | 209 | 0.0 | 0.0 | 0.00 | 0.00 | 0.00 | 41 | 1020.6 |
| 20260903025043 | 61 | 204 | 0.0 | 0.0 | 0.00 | 0.00 | 0.00 | 41 | 1020.6 |
| 20260903023143 | 61 | 218 | 0.0 | 0.0 | 0.00 | 0.00 | 0.00 | 41 | 1020.7 |
| 20260903022145 | 62 | 203 | 0.0 | 0.0 | 0.00 | 0.00 | 0.00 | 40 | 1020.6 |
| 20260903021243 | 62 | 208 | 0.0 | 0.0 | 0.00 | 0.00 | 0.00 | 40 | 1020.7 |
| 20260903015344 | 62 | 206 | 0.0 | 0.0 | 0.00 | 0.00 | 0.00 | 40 | 1021.0 |
| 20260903014359 | 62 | 206 | 0.0 | 0.0 | 0.00 | 0.00 | 0.00 | 40 | 1021.4 |
| 20260903013444 | 62 | 201 | 0.0 | 0.0 | 0.00 | 0.00 | 0.00 | 40 | 1021.3 |
| 20260903012543 | 62 | 196 | 0.0 | 0.0 | 0.00 | 0.00 | 0.00 | 40 | 1021.4 |
| 20260903011544 | 62 | 213 | 0.0 | 0.0 | 0.00 | 0.00 | 0.00 | 41 | 1021.6 |
| 20260903010642 | 62 | 203 | 0.0 | 0.0 | 0.00 | 0.00 | 0.00 | 41 | 1021.6 |
| 20260903004744 | 61 | 202 | 0.0 | 0.0 | 0.00 | 0.00 | 0.00 | 41 | 1021.7 |
| 20260903003844 | 61 | 198 | 0.0 | 0.0 | 0.00 | 0.00 | 0.00 | 40 | 1021.8 |
| 20260903002844 | 61 | 201 | 0.0 | 0.0 | 0.00 | 0.00 | 0.00 | 41 | 1022.1 |
| 20260903001846 | 61 | 194 | 0.0 | 0.0 | 0.00 | 0.00 | 0.00 | 41 | 1022.0 |
| 20260903000845 | 61 | 202 | 0.0 | 0.0 | 0.00 | 0.00 | 0.00 | 41 | 1022.0 |
| 20260902235842 | 61 | 196 | 0.0 | 0.0 | 0.00 | 0.00 | 0.00 | 41 | 1022.2 |
| 20260902234843 | 61 | 189 | 0.0 | 0.0 | 0.00 | 0.00 | 0.00 | 41 | 1022.2 |
| 20260902233845 | 61 | 157 | 0.0 | 0.0 | 0.00 | 0.00 | 0.00 | 41 | 1022.4 |
| 20260902232943 | 60 | 152 | 0.0 | 0.0 | 0.00 | 0.00 | 0.00 | 41 | 1022.5 |
| 20260902232043 | 60 | 180 | 0.0 | 0.0 | 0.00 | 0.00 | 0.00 | 41 | 1022.6 |
| 20260902231045 | 60 | 202 | 0.0 | 0.0 | 0.00 | 0.00 | 0.00 | 41 | 1022.8 |
| 20260902230143 | 60 | 145 | 0.0 | 0.0 | 0.00 | 0.00 | 0.00 | 41 | 1022.8 |
| 20260902224259 | 60 | 180 | 0.0 | 0.0 | 0.00 | 0.00 | 0.00 | 41 | 1023.1 |
| 20260902223243 | 60 | 188 | 0.0 | 0.0 | 0.00 | 0.00 | 0.00 | 40 | 1023.1 |
| 20260902222242 | 60 | 225 | 0.0 | 0.0 | 0.00 | 0.00 | 0.00 | 41 | 1023.4 |
| 20260902221341 | 61 | 225 | 0.0 | 0.0 | 0.00 | 0.00 | 0.00 | 41 | 1023.4 |
| 20260902220345 | 61 | 202 | 0.0 | 0.0 | 0.00 | 0.00 | 0.00 | 41 | 1023.4 |
| 20260902215421 | 61 | 202 | 0.0 | 0.0 | 0.00 | 0.00 | 0.00 | 40 | 1023.5 |
| 20260902214424 | 62 | 205 | 0.0 | 0.0 | 0.00 | 0.00 | 0.00 | 40 | 1023.5 |
| 20260902213522 | 62 | 202 | 0.0 | 0.0 | 0.00 | 0.00 | 0.00 | 40 | 1023.4 |
| 20260902212522 | 62 | 199 | 0.0 | 0.0 | 0.00 | 0.00 | 0.00 | 40 | 1023.4 |
| 20260902211523 | 62 | 200 | 0.0 | 0.0 | 0.00 | 0.00 | 0.00 | 40 | 1023.5 |
| 20260902210522 | 62 | 202 | 0.0 | 0.0 | 0.00 | 0.00 | 0.00 | 40 | 1023.5 |
| 20260902205523 | 62 | 201 | 0.0 | 0.0 | 0.00 | 0.00 | 0.00 | 40 | 1023.6 |
| 20260902204522 | 62 | 201 | 0.0 | 0.0 | 0.00 | 0.00 | 0.00 | 40 | 1023.6 |
| 20260902203523 | 62 | 201 | 0.0 | 0.0 | 0.00 | 0.00 | 0.00 | 40 | 1023.6 |
| 20260902202621 | 62 | 199 | 0.0 | 0.0 | 0.00 | 0.00 | 0.00 | 40 | 1023.6 |
| 20260902201622 | 62 | 202 | 0.0 | 0.0 | 0.00 | 0.00 | 0.00 | 40 | 1023.8 |
| 20260902200622 | 62 | 199 | 0.0 | 0.0 | 0.00 | 0.00 | 0.00 | 40 | 1023.8 |
| 20260902195721 | 62 | 214 | 0.0 | 0.0 | 0.00 | 0.00 | 0.00 | 40 | 1024.0 |
| 20260902193722 | 62 | 202 | 0.0 | 0.0 | 0.00 | 0.00 | 0.00 | 40 | 1024.0 |
| 20260902192722 | 62 | 205 | 0.0 | 0.0 | 0.00 | 0.00 | 0.00 | 40 | 1024.0 |
| 20260902191722 | 62 | 202 | 0.0 | 0.0 | 0.00 | 0.00 | 0.00 | 40 | 1024.0 |
| 20260902185724 | 63 | 225 | 0.0 | 0.0 | 0.00 | 0.00 | 0.00 | 40 | 1024.0 |
| 20260902184722 | 63 | 221 | 0.0 | 0.0 | 0.00 | 0.00 | 0.00 | 40 | 1024.0 |
| 20260902183739 | 63 | 189 | 0.0 | 0.0 | 0.00 | 0.00 | 0.00 | 40 | 1023.9 |
| 20260902182723 | 63 | 225 | 0.0 | 0.0 | 0.00 | 0.00 | 0.00 | 39 | 1024.0 |
| 20260902181724 | 63 | 225 | 0.0 | 0.0 | 0.00 | 0.00 | 0.00 | 39 | 1023.8 |
| 20260902180722 | 64 | 233 | 0.0 | 0.0 | 0.00 | 0.00 | 0.00 | 39 | 1023.8 |